This demonstration page uses our WeatherBlox Daily Observations layout. Learn more.

Left ArrowRight Arrow

39.51506, -84.39828

Hourly Observations for May 14, 2016

Temp ( °F °C ) Dew Point ( °F °C ) Humidity (%) Winds ( mph kmh ) Pressure ( in mb ) Visibility ( mi km ) Precip ( " mm )
12:15 am 00:15 Clear 55 12.5 47 8.4 76 76 undefined N/A 29.91 1013 10 16 N/A
12:35 am 00:35 Clear 55 12.5 47 8.5 77 77 undefined N/A 29.91 1013 10 16 N/A
12:55 am 00:55 Clear 55 12.5 48 8.7 78 78 undefined N/A 29.91 1013 10 16 N/A
1:15 am 01:15 Partly Cloudy 57 13.8 50 10 78 78 SW 6 9 29.91 1013 10 16 N/A
1:35 am 01:35 Partly Cloudy 57 13.8 50 9.8 77 77 undefined N/A 29.88 1012 10 16 N/A
1:55 am 01:55 Partly Cloudy 57 13.8 48 8.7 72 72 undefined N/A 29.88 1012 10 16 N/A
2:15 am 02:15 Partly Cloudy 57 13.8 49 9.5 75 75 undefined N/A 29.83 1010 10 16 N/A
2:35 am 02:35 Partly Cloudy 57 13.8 49 9.2 74 74 undefined N/A 29.83 1010 10 16 N/A
2:55 am 02:55 Mostly Cloudy 57 13.9 47 8.2 69 69 undefined N/A 29.83 1010 10 16 N/A
3:15 am 03:15 Cloudy with Light Rain 57 13.8 49 9.3 74 74 undefined N/A 29.83 1010 10 16 N/A
3:35 am 03:35 Cloudy with Light Rain 57 13.8 49 9.3 74 74 undefined N/A 29.80 1009 7 11 N/A
3:55 am 03:55 Cloudy 57 13.8 49 9.3 74 74 undefined N/A 29.80 1009 10 16 N/A
4:15 am 04:15 Cloudy 57 13.8 48 8.8 72 72 undefined N/A 29.77 1008 10 16 N/A
4:35 am 04:35 Cloudy with Light Rain 57 13.8 48 9.1 73 73 undefined N/A 29.77 1008 10 16 N/A
4:55 am 04:55 Cloudy with Drizzle 57 13.8 49 9.6 76 76 undefined N/A 29.77 1008 10 16 N/A
5:15 am 05:15 Cloudy 57 13.8 49 9.2 74 74 undefined N/A 29.77 1008 10 16 N/A
5:35 am 05:35 Cloudy 57 13.8 49 9.2 74 74 SSW 9 15 29.77 1008 10 16 N/A
5:55 am 05:55 Cloudy with Rain 57 13.8 50 9.9 78 78 undefined N/A 29.77 1008 5 8 N/A
6:15 am 06:15 Cloudy with Rain 57 13.8 51 10.5 81 81 undefined N/A 29.77 1008 7 11 N/A
6:35 am 06:35 Cloudy with Rain 57 13.8 51 10.5 81 81 SW 18 30 29.80 1009 10 16 N/A
6:55 am 06:55 Cloudy 55 12.5 47 8.5 77 77 NNW 14 22 29.83 1010 10 16 N/A
7:15 am 07:15 Cloudy 55 12.5 47 8.1 75 75 NNW 10 17 29.85 1011 10 16 N/A
7:35 am 07:35 Cloudy 52 11 44 6.5 74 74 undefined N/A 29.85 1011 10 16 N/A
7:55 am 07:55 Cloudy 52 11 44 6.5 74 74 undefined N/A 29.85 1011 10 16 N/A
8:15 am 08:15 Cloudy 52 11.3 41 5.2 66 66 NNW 21 33 29.88 1012 10 16 N/A
8:35 am 08:35 Cloudy 51 10.3 39 4.1 66 66 undefined N/A 29.88 1012 10 16 N/A
8:55 am 08:55 Cloudy 49 9.6 39 3.8 67 67 undefined N/A 29.91 1013 10 16 N/A
9:15 am 09:15 Cloudy 49 9.6 38 3.4 66 66 undefined N/A 29.91 1013 10 16 N/A
9:35 am 09:35 Mostly Cloudy 52 11.2 39 3.9 61 61 undefined N/A 29.91 1013 10 16 N/A
9:55 am 09:55 Mostly Cloudy 51 10.6 36 2.3 57 57 NNW 15 24 29.91 1013 10 16 N/A
10:15 am 10:15 Cloudy 49 9.7 36 2.1 59 59 undefined N/A 29.91 1013 10 16 N/A
10:35 am 10:35 Cloudy 52 11 37 2.6 56 56 undefined N/A 29.91 1013 10 16 N/A
10:55 am 10:55 Cloudy 55 12.5 37 2.6 51 51 NNW 13 20 29.91 1013 10 16 N/A
11:15 am 11:15 Cloudy 52 11 36 2.1 55 55 NNW 12 19 29.91 1013 10 16 N/A
11:35 am 11:35 Cloudy 50 9.8 35 1.9 58 58 NNW 21 33 29.94 1014 10 16 N/A
11:55 am 11:55 Cloudy 49 9.6 35 1.6 58 58 NNW 14 22 29.94 1014 10 16 N/A
12:15 pm 12:15 Cloudy 54 12.4 39 3.7 56 56 NNW 17 28 29.94 1014 10 16 N/A
12:35 pm 12:35 Cloudy 52 11 35 1.6 53 53 undefined N/A 29.97 1015 10 16 N/A
12:55 pm 12:55 Cloudy 52 11 33 0.8 50 50 undefined N/A 29.97 1015 10 16 N/A
1:15 pm 13:15 Cloudy 50 10.1 34 0.9 53 53 N 16 26 29.97 1015 10 16 N/A
1:35 pm 13:35 Cloudy 52 11 33 0.5 49 49 NNW 20 31 29.97 1015 10 16 N/A
1:55 pm 13:55 Cloudy 52 11 34 0.9 50 50 NNW 18 30 29.97 1015 10 16 N/A
2:15 pm 14:15 Cloudy 51 10.8 32 0.2 48 48 NNW 17 28 30.00 1016 10 16 N/A
2:35 pm 14:35 Cloudy 49 9.6 35 1.7 58 58 undefined N/A 30.00 1016 10 16 N/A
2:55 pm 14:55 Cloudy 49 9.6 38 3.3 65 65 undefined N/A 30.00 1016 10 16 N/A
3:15 pm 15:15 Cloudy 49 9.6 32 0.1 52 52 NNW 15 24 30.03 1017 10 16 N/A
3:35 pm 15:35 Cloudy 49 9.7 32 undefined 51 51 NNW 16 26 30.00 1016 10 16 N/A
3:55 pm 15:55 Cloudy 49 9.6 35 1.4 57 57 undefined N/A 30.03 1017 10 16 N/A
4:15 pm 16:15 Cloudy 49 9.6 36 2.2 60 60 undefined N/A 30.03 1017 10 16 N/A
4:35 pm 16:35 Cloudy 49 9.6 33 0.3 53 53 NNW 10 17 30.03 1017 10 16 N/A
4:55 pm 16:55 Cloudy 49 9.6 32 undefined 52 52 NNW 12 19 30.03 1017 10 16 N/A
5:15 pm 17:15 Cloudy 49 9.6 31 -0.4 50 50 NNW 14 22 30.03 1017 10 16 N/A
5:35 pm 17:35 Cloudy 49 9.6 31 -0.5 50 50 NNW 8 13 30.03 1017 10 16 N/A
5:55 pm 17:55 Cloudy 49 9.6 31 -0.7 49 49 NNW 9 15 30.03 1017 10 16 N/A
6:15 pm 18:15 Cloudy 49 9.6 31 -0.8 49 49 N 13 20 30.03 1017 10 16 N/A
6:35 pm 18:35 Cloudy 49 9.6 32 -0.2 51 51 NNW 8 13 30.06 1018 10 16 N/A
6:55 pm 18:55 Cloudy 49 9.6 32 -0.2 51 51 SSW 7 11 30.03 1017 10 16 N/A
7:15 pm 19:15 Cloudy 49 9.6 32 undefined 52 52 NW 8 13 30.03 1017 10 16 N/A
7:35 pm 19:35 Cloudy 49 9.6 32 undefined 52 52 NNW 9 15 30.06 1018 10 16 N/A
7:55 pm 19:55 Cloudy 49 9.6 32 undefined 52 52 NNW 7 11 30.06 1018 10 16 N/A
8:15 pm 20:15 Cloudy 49 9.6 32 undefined 52 52 NNW 6 9 30.06 1018 10 16 N/A
8:35 pm 20:35 Cloudy 49 9.6 32 -0.1 51 51 NNW 6 9 30.06 1018 10 16 N/A
8:55 pm 20:55 Cloudy 49 9.6 32 undefined 52 52 NNW 6 9 30.06 1018 10 16 N/A
9:15 pm 21:15 Cloudy 49 9.6 32 undefined 52 52 NNW 6 9 30.06 1018 10 16 N/A
9:35 pm 21:35 Cloudy 49 9.6 33 0.3 53 53 NNW 9 15 30.06 1018 10 16 N/A
9:55 pm 21:55 Cloudy 49 9.6 30 -0.9 48 48 NNW 14 22 30.06 1018 10 16 N/A
10:15 pm 22:15 Cloudy 49 9.6 30 -0.9 48 48 NNW 12 19 30.06 1018 10 16 N/A
10:35 pm 22:35 Cloudy 49 9.6 31 -0.8 49 49 NNW 7 11 30.06 1018 10 16 N/A
10:55 pm 22:55 Cloudy 49 9.6 32 0.1 52 52 N 5 7 30.09 1019 10 16 N/A
11:15 pm 23:15 Cloudy 49 9.6 32 0.2 52 52 NW 6 9 30.09 1019 10 16 N/A
11:35 pm 23:35 Cloudy 49 9.3 32 0.1 53 53 WNW 6 9 30.09 1019 10 16 N/A
11:55 pm 23:55 Cloudy 48 8.9 32 0.1 54 54 SSW 5 7 30.09 1019 10 16 N/A

Powered by AerisWeather